Regional Weather Roundup
Issued by NWS

Home | Current Version | Previous Version | Graphics & Text | Print | Product List | Glossary On
Versions: 1 2 3 4 5 6 7 8 9 10 11 12 13 14 15 16 17 18 19 20 21 22 23 24 25 26 27 28 29 30 31 32 33 34 35 36 37 38 39 40 41 42 43 44 45 46 47 48 49 50
000
ASUS43 KOAX 280410
RWRNE

WEATHER ROUNDUP FOR NEBRASKA
NATIONAL WEATHER SERVICE OMAHA NE
1000 PM CST THU NOV 27 2014

NOTES: SATELLITE DATA IS BEING USED TO AUGMENT CLOUD COVER ABOVE
       12000 FEET.
       "FAIR" INDICATES FEW OR NO CLOUDS BELOW 12,000 FEET WITH NO
       SIGNIFICANT WEATHER AND/OR OBSTRUCTIONS TO VISIBILITY.

  * THESE STATIONS DO NOT REPORT WEATHER SUCH AS RAIN...SNOW OR FOG.

NEZ001>004-019>022-054>056-280500-
NEBRASKA PANHANDLE

CITY           SKY/WX    TMP DP  RH WIND       PRES   REMARKS
SCOTTSBLUFF    PTCLDY    33  27  78 NE3       29.99S
ALLIANCE       CLEAR     32  26  78 W12       29.96F WCI  23
CHADRON        PTCLDY   N/A N/A N/A W8        29.93F
KIMBALL        CLEAR     42  27  54 W9        30.02R
SIDNEY         CLEAR     35  26  69 W8        30.03S WCI  29
$$

NEZ057>060-069>072-079>082-280500-
SOUTHWEST NEBRASKA

CITY           SKY/WX    TMP DP  RH WIND       PRES   REMARKS
NORTH PLATTE   PTCLDY    26  19  74 CALM      29.98F
IMPERIAL       CLEAR     43  28  55 W10       30.00S
LEXINGTON      PTCLDY    28  19  70 SE3       29.99S
MCCOOK         CLEAR     38  25  59 W8        29.98S WCI  32
OGALLALA       CLEAR     33  31  90 W9        29.99F WCI  26
$$

NEZ005>010-023>029-035>040-094-280500-
NORTH CENTRAL NEBRASKA

CITY           SKY/WX    TMP DP  RH WIND       PRES   REMARKS
VALENTINE      CLEAR     36  28  73 SW8       29.90S WCI  30
AINSWORTH      CLEAR     34  22  61 S14       29.91F WCI  25
BROKEN BOW     PTCLDY    26  17  68 SE3       29.98F
O`NEILL        CLEAR     31  20  64 S16G22    29.97F WCI  19
ORD            CLEAR     27  17  66 SE7       30.01F WCI  19
THEDFORD       CLEAR     38  26  60 SW8       29.95F WCI  32
$$

NEZ041-046>049-061>064-073>077-083>087-280500-
SOUTH CENTRAL NEBRASKA

CITY           SKY/WX    TMP DP  RH WIND       PRES   REMARKS
GRAND ISLAND   CLEAR     30  17  58 SE10      30.05F WCI  21
AURORA         CLEAR     28  18  64 SE9       30.06F WCI  20
HASTINGS       CLEAR     32  18  56 S14       30.02F WCI  22
HEBRON         CLEAR     36  15  43 S14G21    30.11F WCI  27
HOLDREGE       CLEAR     33  20  61 S9        29.99F WCI  25
KEARNEY *      PTCLDY    28  19  69 SE8       30.01F WCI  20
YORK           CLEAR     28  19  69 SE9       30.09F WCI  20
$$

NEZ011>018-030>034-042>045-280500-
NORTHEAST NEBRASKA

CITY           SKY/WX    TMP DP  RH WIND       PRES   REMARKS
NORFOLK        CLEAR     21  14  74 SE13      30.07F WCI   9
ALBION         PTCLDY    24  17  76 SE9       30.05F WCI  14
BLAIR          PTCLDY    25  17  70 SE12      30.16S WCI  14
COLUMBUS *     CLEAR     25  12  58 SE6       30.11F WCI  18
FREMONT        CLEAR     25  18  74 SE9G16    30.16S WCI  15
TEKAMAH        PTCLDY    20  13  74 SE13      30.18F WCI   7
WAYNE          CLOUDY    20  13  73 S13       30.11F WCI   8
$$

NEZ050>053-065>068-078-088>093-280500-
SOUTHEAST NEBRASKA

CITY           SKY/WX    TMP DP  RH WIND       PRES   REMARKS
LINCOLN        CLEAR     27  18  69 S13       30.15F WCI  16
OMAHA EPPLEY   PTCLDY    24  16  71 SE15      30.19F WCI  11
BEATRICE       CLEAR     31  19  62 S12G17    30.14F WCI  22
FALLS CITY     CLEAR     26  20  77 SE13      30.22F WCI  15
NEBRASKA CITY  CLEAR     25  17  70 S9        30.20F WCI  15
PLATTSMOUTH    CLEAR     24  16  71 SE15      30.16F WCI  11
$$

NEZ044-045-051>053-067-280500-
OMAHA AREA

CITY           SKY/WX    TMP DP  RH WIND       PRES   REMARKS
OMAHA EPPLEY   PTCLDY    24  16  71 SE15      30.19F WCI  11
BLAIR          PTCLDY    25  17  70 SE12      30.16S WCI  14
FREMONT        CLEAR     25  18  74 SE9G16    30.16S WCI  15
MILLARD        CLEAR     24  17  74 SE12      30.18F WCI  13
OFFUTT AFB     PTCLDY    23  16  73 SE7       30.19F WCI  15
PLATTSMOUTH    CLEAR     24  16  71 SE15      30.16F WCI  11
WAHOO          FAIR      24  16  73 SE8       30.15F WCI  15
$$


USA.gov is the U.S. government's official web portal to all federal, state and local government web resources and services.